Погода в Шевченкове

Украина / Днепропетровская область     47°53′01″N   34°08′56″E
темп.,
°C
ветер,
м/с
пор.,
м/с
влажн.,
%
обл.,
%
осадки,
мм/ч
давл.,
гПа
погр.,
м
19 сентября, вс
вс1900:00+17ю1574100 1.3 1008187
03:00+17юз3688100 3.3 1008508
06:00+17зсз349023 0.3 1007219
09:00+18сз347042 0.3 1008474
12:00+22з454719 0.0 10071392
15:00+24зюз563896 0.0 10072425
18:00+21зюз374596 0.1 1007451
21:00+19юз4855100 0.2 1007273
20 сентября, пн
пн2000:00+16з587172 0.0 1007396
03:00+12з68756 0.0 1009580
06:00+9з49735 0.0 1010578
09:00+12з69599 0.0 1011909
12:00+15з7104940 0.0 10111375
15:00+15з8114876 0.0 10111677
18:00+14з685496 0.0 10121391
21:00+13з4756100 0.0 10131207
21 сентября, вт
вт2100:00+10з4871100 0.0 1014441
03:00+8з378288 0.0 1015239
06:00+9з3779100 0.0 1015434
09:00+11зсз567297 0.0 1015642
12:00+12зсз5663100 0.0 10161107
15:00+11зсз8851100 0.0 10161164
18:00+10зсз6848100 0.0 10171631
21:00+9сз5764100 0.0 1018901
22 сентября, ср
ср2200:00+8зсз5878100 0.0 1018727
03:00+7зсз587183 0.0 1018566
06:00+8зсз4661100 0.0 10181116
09:00+8з4464100 0.0 1018773
12:00+9з4454100 0.0 10181226
15:00+10з4450100 0.1 10171316
18:00+10зсз3353100 0.0 10171178
21:00+9сз1163100 0.0 101735
23 сентября, чт
чт2300:00+8сз1167100 0.0 101625
03:00+7ссв117099 0.0 101526
06:00+7всв1169100 0.0 101549
09:00+8ссв1064100 0.0 1014220
12:00+12зюз134984 0.0 10131548
15:00+12зсз434650 0.0 10131252
18:00+10ссз5559100 0.0 1013721
21:00+7сз4771100 0.0 1014242